www.pogodaiklimat.ru

Погода и климат >> Архив погоды >> Индонезия >> Серуи


ПОГОДА в Серуи

  • Прогноз погоды в Серуи
  • Монитор погоды в Серуи

АРХИВ ПОГОДЫ в Серуи

Время (UTC), дата Ветер
(напр.,м/с)
 
Видим.   Явления Облачность Т
(С)
Тd
(С)
f
(%)
Тe
(С)
Тes
(С)
Комфортность P
(гПа)
Po
(гПа)
Тmin
(С)
Tmax
(С)
R
(мм)
R24
(мм)
S
(см)
00 15.09 штиль 0 10 км 9/4 360 м
[Cu Sc Ac trans Ci fib]
+28.6 +24.2 77 +40 +45 очень
душно
1011.6 1011.2 +24.0
03 15.09 Ю 3 10 км 9/6
[Cu Sc Ac trans Ci fib]
+31.2 +24.9 69 +44 +49 опасность
перегрева
1009.6 1009.2
06 15.09 С 2 8000 м слаб. дождь 8/3
[Cu Sc As op Ci fib]
+25.9 +24.1 90 +36 +41 очень
душно
1007.9 1007.5 1
09 15.09 С 2 9000 м 8/4
[Cu Sc Ac trans Ci sp]
+28.7 +24.2 77 +40 +40 очень
душно
1008.8 1008.4
12 15.09 С 2 5000 м 8/3
[Cu hum As trans Ci fib]
+26.1 +24.0 88 +36 +36 очень
душно
1010.6 1010.3 +31.9
15 15.09 С 2 н/о 9/1 400 м
[Cu hum Ac trans Cs]
+25.0 +23.2 90 +33 +33 очень
душно
1010.7 1010.3
18 15.09 В 2 6000 м 9/3 400 м
[Cu hum Ac trans Ci fib]
+24.5 +23.1 92 +33 +33 очень
душно
1010.2 1009.9
21 15.09 штиль 0 8000 м 9/1 400 м
[Cu hum Ac trans Ci fib]
+24.4 +23.1 92 +32 +32 очень
душно
1010.9 1010.5
03 16.09 С 3 9000 м 9/1 400 м
[Cu hum Ac trans Ci fib]
+28.6 +24.2 77 +40 +49 очень
душно
1009.7 1009.4 1
06 16.09 Ю 4 10 км {дождь} 9/3
[Cu hum Ci fib]
+30.8 +25.4 73 +45 +49 опасность
перегрева
1007.5 1007.2 0.0
09 16.09 штиль 0 10 км 9/3
[Cu hum Ci fib]
+29.5 +25.2 78 +43 +43 опасность
перегрева
1007.8 1007.5
12 16.09 штиль 0 6000 м зарница 9/4
[Cb cap Ac As]
+27.6 +25.1 86 +40 +40 очень
душно
1010.7 1010.2 +31.0
15 16.09 штиль 0 н/о зарница {дождь} 9/4
[Cb cap As op]
+27.0 +24.9 88 +39 +39 очень
душно
1010.6 1010.3 0.0
18 16.09 В 2 н/о 1/1 400 м
[Cu hum Ci fib]
+25.6 +24.1 91 +35 +35 очень
душно
1009.9 1009.6 0.0
00 17.09 Ю 3 10 км 6/4 360 м
[Cu Sc Ac trans Ci fib]
+29.6 +24.4 74 +42 +47 опасность
перегрева
1011.4 1010.0 +24.0
03 17.09 ЮЗ 3 10 км 9/3 360 м
[Cu Sc Ac trans Ci fib]
+21.0 +23.8 100 +27 +35 душно 1009.9 1009.5
09 17.09 С 1 8000 м 9/4
[Cu hum Ac trans Ci fib]
+32.0 +25.6 69 +47 +47 опасность
перегрева
1008.8 1008.5
12 17.09 штиль 0 6000 м зарница 9/4
[Cb cap Ac trans]
+28.7 +25.7 84 +43 +43 опасность
перегрева
1011.2 1010.9 +32.4
15 17.09 штиль 0 5000 м зарница 8/4
[Cb cap Ac trans Cs]
+27.3 +24.5 85 +39 +39 очень
душно
1011.3 1010.9
18 17.09 С 2 н/о 9/1 400 м
[Cu hum Ac trans Ci fib]
+26.2 +24.1 88 +36 +36 очень
душно
1010.7 1010.3
21 17.09 штиль 0 8000 м 8/1 400 м
[Cu hum Cs]
+25.2 +23.4 90 +34 +34 очень
душно
1011.7 1011.4
00 18.09 ЮЗ 3 10 км 6/3 360 м
[Cu med, cong Ac trans Ci fib]
+30.0 +24.2 71 +42 +48 опасность
перегрева
1012.9 1012.6 +24.0
03 18.09 Ю 3 10 км 9/1 360 м
[Cu hum Ac trans Ci fib]
+32.6 +25.4 66 +47 +57 опасность
перегрева
1010.1 1009.7
06 18.09 Ю 6 10 км 1/1 400 м
[Cu hum Ci fib]
+31.8 +25.3 69 +46 +50 опасность
перегрева
1007.9 1007.5
09 18.09 штиль 0 10 км 8/3
[Cu hum Ci fib]
+30.2 +24.8 73 +43 +43 опасность
перегрева
1008.8 1008.4
12 18.09 штиль 0 5000 м зарница {туман} 9/4
[Cb cap Ac trans Ci fib]
+28.2 +25.0 83 +41 +41 опасность
перегрева
1010.8 1010.4 +33.3
15 18.09 штиль 0 5000 м гроза без осадков 9/5
[Cb cap Ac As]
+26.8 +23.8 84 +37 +37 очень
душно
1010.7 1010.3
18 18.09 ЮВ 2 н/о зарница {гроза} 10/4
[Cb cap Ac As]
+26.4 +22.8 81 +35 +35 очень
душно
1010.5 1010.2
21 18.09 СВ 3 8000 м зарница 9/4
[Cb cap Ac trans Ci fib]
+25.2 +23.4 90 +34 +34 очень
душно
1011.1 1010.7
00 19.09 С 2 8000 м {дождь} 9/1 400 м
[Cu hum Ac As]
+27.0 +24.0 84 +37 +41 очень
душно
1012.8 1012.5 +24.5 0.0
03 19.09 Ю 2 10 км 9/4
[Cu hum Ac trans Ci fib]
+30.8 +24.6 70 +44 +52 опасность
перегрева
1010.4 1010.1
09 19.09 С 2 7000 м 9/4
[Cu Sc Ac trans Ci fib]
+29.8 +24.8 75 +43 +43 опасность
перегрева
1008.7 1008.3
12 19.09 С 2 8000 м 8/3
[Cu hum Ac trans Ci fib]
+27.8 +24.3 81 +39 +39 очень
душно
1010.7 1010.3 +32.7
15 19.09 СВ 2 6000 м 9/1 400 м
[Cu hum Ac trans Ci fib]
+26.2 +23.8 87 +36 +36 очень
душно
1010.3 1009.9
18 19.09 В 2 6000 м зарница 9/5
[Cb cap Ac As]
+25.8 +23.7 88 +35 +35 очень
душно
1009.4 1009.0
21 19.09 штиль 0 8000 м слаб. дождь 10/4 90 м
[St As trans]
+26.0 +24.2 90 +36 +36 очень
душно
1011.5 1011.2 0.0
00 20.09 ЮВ 6 10 км 3/1 360 м
[Cu hum Ac trans Ci fib]
+30.0 +23.0 66 +40 +43 очень
душно
1011.9 1011.5 +23.8
03 20.09 Ю 2 10 км 9/5 330 м
[Frnb As trans]
+30.0 1010.4 1010.1
09 20.09 штиль 0 8000 м мгла {дождь} 9/4 360 м
[Cb cap Ac trans Ci fib]
+26.9 +24.4 86 +38 +38 очень
душно
1009.3 1009.0 0.0
12 20.09 штиль 0 6000 м зарница 8/4
[Cb cap Ac trans]
+25.1 +22.8 87 +33 +33 очень
душно
1010.9 1010.5 +31.0
15 20.09 С 2 5000 м зарница 9/4
[Cb cap Ac As]
+24.6 +22.4 88 +32 +32 очень
душно
1010.8 1010.4
18 20.09 С 3 5000 м зарница 9/4
[Cb cap Ac As]
+24.6 +22.7 89 +32 +32 очень
душно
1009.5 1009.1
21 20.09 С 7 8000 м зарница {дождь} 9/4
[Cb cap Ac As]
+24.6 +22.7 89 +32 +32 очень
душно
1010.8 1010.4 3
00 21.09 В 3 10 км {дождь} 8/3
[Cu hum Ac trans Ci fib]
+27.5 +22.3 73 +36 +41 очень
душно
1012.0 1011.6 +24.0 3
06 21.09 ЮВ 8 8000 м 9/1 400 м
[Cu hum Ac trans Ci fib]
+30.6 +22.1 61 +40 +41 очень
душно
1008.2 1007.8
09 21.09 В 2 8000 м 9/3
[Cu hum Ac As]
+29.4 +22.5 66 +38 +38 очень
душно
1009.6 1009.2
12 21.09 штиль 0 5000 м зарница 9/4
[Cb cap Ac As]
+26.6 +22.4 78 +35 +35 очень
душно
1010.6 1010.3 +31.8
15 21.09 штиль 0 5000 м зарница 9/4
[Cb cap Ac As]
+25.8 +22.5 82 +34 +34 очень
душно
1010.2 1009.8
18 21.09 С 2 н/о зарница 9/4
[Cb cap Ac As]
+25.2 +22.8 87 +33 +33 очень
душно
1010.0 1009.7

 

Местоположение метеостанции Серуи (Индонезия): широта -1.87 долгота 136.23 высота над уровнем моря 3 м.

В архиве по умолчанию представлена погода в Серуи за последнюю неделю. Архивные данные за месяц целиком и за предыдущие месяцы, начиная с января 2011 года, Вы можете получить, выбрав интересующий диапазон дат из раскрывающегося списка и нажав кнопку "Ввод!".


*Определитесь, кто Вы:
робот инопланетянин человек

Внимание! Время в таблицах - всемирное. Для получения местного времени необходимо прибавить поправку, которая равна 9 ч.

Смотрите также архив погоды в соседних городах и на ближайших метеорологических станциях:

Погода в Биаке (Индонезия) (78 км)
Погода в Набире (Индонезия) (182 км)
Погода в Энаротали (Индонезия) (229 км)
Погода в Маноквари (Индонезия) (266 км)
Погода в Сарми (Индонезия) (276 км)
Погода в Каимана (Индонезия) (341 км)
Погода в Коконао (Индонезия) (374 км)
Погода в Вамене (Индонезия) (389 км)
Погода в Факфаке (Индонезия) (456 км)
Погода в Сентани (Индонезия) (483 км)

Пояснения к столбцам:

Ветер - указаны скорость ветра в м/с - средняя за 10 мин, порывы в срок и между сроками (в фигурных скобках) и направление, откуда дует ветер: С - северный, СВ - северо-восточный, В - восточный, ЮВ - юго-восточный, Ю - южный, ЮЗ - юго-западный, З - западный, СЗ - северо-западный.
Видимость - горизонтальная дальность видимости в метрах или километрах. При видимости от 1 до 10 км при отсутствии осадков обычно наблюдается дымка, при ухудшении видимости до 1 км и менее - туман. В сухую погоду видимость может ухудшаться дымом, пылью или мглою.
Явления - указаны атмосферные явления, наблюдавшиеся в срок или в последний час перед сроком; фигурными скобками обозначены явления, наблюдавшиеся между сроками (за 1-3 часа до срока); квадратными скобками обозначены град или гололедные отложения с указанием их диаметра в мм.
Облачность - указаны через наклонную черту общая и нижняя облачность в баллах и высота нижней границы облаков в метрах; квадратными скобками обозначены формы облаков: Ci - перистые, Cs - перисто-слоистые, Cc - перисто-кучевые, Ac - высококучевые, As - высокослоистые, Sc - слоисто-кучевые, Ns - слоисто-дождевые, Cu - кучевые, Cb - кучево-дождевые. Подробнее классификацию облаков см. в Атласе облаков (PDF).
T - Температура воздуха - температура, измеренная на высоте 2 м над землей.
Td - Температура точки росы - температура, при понижении до которой содержащийся в воздухе водяной пар достигнет насыщения.
f - Относительная влажность воздуха - влажноcть воздуха, измеренная на высоте 2 м над землей.
Te - Эффективная температура - температура, которую ощущает одетый по сезону человек в тени. Характеристика душности погоды. При расчете учитывается влияние влажности воздуха и скорости ветра на теплоощущения человека.
Tes - Эффективная температура на солнце - температура, которую ощущает человек, с поправкой на солнечный нагрев. Характеристика знойности погоды. Зависит от высоты солнца над горизонтом, облачности и скорости ветра. Ночью, в пасмурную погоду, а также при ветре 12 м/с и более поправка равна нулю.
P - Атмосферное давление - приведенное к уровню моря атмосферное давление.
Po - Атмосферное давление - измеренное на уровне метеостанции атмосферное давление.
Tmin - Минимальная температура - минимум температуры воздуха на высоте 2 м над землей.
Tmax - Максимальная температура - максимум температуры воздуха на высоте 2 м над землей.
R - Количество осадков - Количество выпавших осадков за период времени, мм. При наведении курсора мыши на число - период времени, за который выпало указанное количество осадков.
R24 - Количество осадков - Количество выпавших осадков за 24 часа, мм.
S - Снежный покров - Высота снежного покрова, см. При наведении курсора мыши на число - состояние снежного покрова и степень покрытия местности в баллах.